Location: Unspecified
(0.0000°N, 0.0000°E)
Time: 09:47:37
(UTC+00:00)

FAST 1 (USA 222) - Pass Details

Date: 30 May 2024
Orbit: 613 x 632 km, 72.0° (Epoch: 13 June)

Event Time Altitude Azimuth Distance (km) Brightness Sun altitude
Rises 19:53:28 0° 334° (NNW) 2,880 ? -26.7°
Reaches altitude 10° 19:55:47 10° 328° (NNW) 1,981 ? -27.2°
Maximum altitude 20:00:01 44° 256° (WSW) 869 ? -28.2°
Enters shadow 20:00:08 43° 251° (WSW) 870 ? -28.2°
